Tracking 19709 objects as of 18-Jun-2019
HD Live streaming from Space Station
objects crossing your sky now

SL-8 DEB

Track SL-8 DEB now!
10-day predictions


NORAD ID: 27746
Int'l Code: 1991-009DB
Perigee: 1,481.7 km
Apogee: 1,768.4 km
Inclination: 74.1 °
Period: 118.6 minutes
Semi major axis: 7996 km
RCS: 0.0277 m2 (small)
Launch date: February 12, 1991
Source: Commonwealth of Independent States (former USSR) (CIS)
Launch site: PLESETSK MISSILE AND SPACE COMPLEX (PKMTR)

Note: This is SATELLITE DEBRIS
aabbcc
Your satellite tracking list
Your tracking list is empty




NASA's NSSDC Master Catalog

Two Line Element Set (TLE):
1 27746U 91009DB  19168.52043345 -.00000116  00000-0 -10189-2 0  9997
2 27746  74.1027 358.7498 0179303  75.8677 314.6301 12.14201449253327
Source of the keplerian elements: AFSPC